Flag for Montenegro Weather past 2 weeks in Podgorica, Montenegro

Now
79 °F

Partly sunny.


Feels Like: 79 °F
Forecast: 62 / 76 °F
Wind: 3 mph from South

Location: Podgorica Titograd

Current Time: Oct 2, 2014 at 1:59:53 PM

Latest Report: Oct 2, 2014 at 1:30 PM


Visibility: N/A

Pressure: 30.12 "Hg

Humidity: 42%

Dew point: 54 °F

Location of PodgoricaLocation

Historic Weather in Podgorica — Graph

°F

Podgorica temperature yesterday

Maximum temperature yesterday: 79 °F (at 1:30 PM)
Minimum temperature yesterday: 54 °F (at 7:00 AM)
Average temperature yesterday: 66 °F

Past Weeks' High & Low Weather Summary

 TemperatureHumidityPressure
High82 °F (Sep 22, 2:30 PM)100% (Sep 20, 8:00 PM)30.39 "Hg (Sep 20, 8:00 PM)
Low50 °F (Sep 24, 5:30 AM)23% (Sep 24, 4:30 PM)29.62 "Hg (Sep 23, 4:30 AM)
Average67 °F63%30.09 "Hg
* Reported Sep 17 1:00 PM — Oct 2 1:00 PM, Podgorica, Weather by CustomWeather, © 2014

Note: Actual official high and low records may vary slightly from our data, if they occured in-between our weather recording intervals... More about our weather records

Advertising

Podgorica weather history for previous 24 hours

 ConditionsComfort  
Time TempWeatherWind HumidityBarometerVisibility
1:00 PM
Oct 2
79 °FScattered clouds.2 mph42%30.12 "HgN/A
12:30 PM77 °FScattered clouds.3 mph44%30.12 "HgN/A
12:00 PM75 °FScattered clouds.3 mph47%30.12 "HgN/A
11:30 AM75 °FScattered clouds.2 mph47%30.15 "HgN/A
11:00 AM72 °FScattered clouds.2 mph53%30.15 "HgN/A
10:30 AM72 °FScattered clouds.1 mph53%30.15 "HgN/A
10:00 AM70 °FScattered clouds.1 mph57%30.15 "HgN/A
9:30 AM68 °FPassing clouds.1 mph64%30.15 "HgN/A
9:00 AM66 °FPassing clouds.1 mph68%30.15 "HgN/A
8:30 AM64 °FPassing clouds.1 mph73%30.15 "HgN/A
8:00 AM59 °FPassing clouds.3 mph82%30.15 "HgN/A
7:30 AM57 °FPassing clouds.3 mph88%30.15 "HgN/A
7:00 AM57 °FPassing clouds.2 mph88%30.15 "HgN/A
6:30 AM57 °FPassing clouds.1 mph88%30.15 "HgN/A
6:00 AM57 °FPassing clouds.1 mph88%30.15 "HgN/A
5:30 AM57 °FPassing clouds.2 mph88%30.12 "HgN/A
5:00 AM57 °FPassing clouds.1 mph88%30.15 "HgN/A
4:30 AM59 °FClear.2 mph82%30.15 "Hg10 mi
4:00 AM57 °FClear.2 mph94%30.15 "Hg10 mi
3:30 AM57 °FClear.1 mph88%30.15 "Hg10 mi
3:00 AM59 °FClear.2 mph88%30.15 "Hg10 mi
2:30 AM59 °FClear.3 mph88%30.15 "Hg10 mi
2:00 AM59 °FPassing clouds.5 mph88%30.15 "HgN/A
1:30 AM61 °FClear.6 mph77%30.15 "Hg10 mi
1:00 AM61 °FClear.3 mph83%30.15 "Hg10 mi
12:30 AM61 °FClear.3 mph83%30.15 "Hg10 mi
12:00 AM59 °FClear.5 mph88%30.15 "Hg10 mi
11:30 PM
Oct 1
63 °FClear.3 mph77%30.15 "Hg10 mi
11:00 PM61 °FClear.3 mph83%30.15 "Hg10 mi
10:30 PM63 °FClear.5 mph77%30.15 "Hg10 mi
10:00 PM63 °FClear.6 mph77%30.15 "Hg10 mi
9:30 PM63 °FPassing clouds.3 mph77%30.15 "HgN/A
9:00 PM64 °FClear.2 mph78%30.15 "Hg10 mi
8:30 PM64 °FClear.3 mph73%30.15 "Hg10 mi
8:00 PM64 °FClear.5 mph78%30.12 "Hg10 mi
7:30 PM68 °FClear.No wind64%30.12 "Hg10 mi
7:00 PM70 °FSunny.2 mph60%30.12 "Hg10 mi
6:30 PM72 °FSunny.3 mph61%30.12 "Hg10 mi
6:00 PM75 °FSunny.3 mph50%30.12 "Hg10 mi
5:30 PM77 °FPassing clouds.5 mph44%30.12 "HgN/A
5:00 PM79 °FPassing clouds.3 mph48%30.12 "HgN/A
4:30 PM79 °FPassing clouds.3 mph48%30.12 "HgN/A
4:00 PM79 °FPassing clouds.3 mph48%30.12 "HgN/A
3:30 PM79 °FPassing clouds.3 mph48%30.12 "HgN/A
3:00 PM79 °FPassing clouds.3 mph45%30.12 "HgN/A
2:30 PM79 °FSunny.3 mph48%30.15 "Hg10 mi
2:00 PM79 °FPassing clouds.3 mph45%30.15 "HgN/A
1:30 PM79 °FSunny.2 mph39%30.15 "Hg10 mi
1:00 PM77 °FPassing clouds.3 mph44%30.18 "HgN/A
Weather by CustomWeather, © 2014

See weather overviewHow to use our weather pages